Location: Bluff Heights
(33.7692°N, 118.1592°W)
Time: 10:44:41
(UTC+00:00)

Tiros 1 - Pass Details

Date: 02 August 2021
Orbit: 630 x 663 km, 48.4° (Epoch: 22 September)

Event Time Altitude Azimuth Distance (km) Brightness Sun altitude
Rises 00:26:25 0° 220° (SW) 2,979 11.0 28.7°
Reaches altitude 10° 00:28:47 10° 216° (SW) 2,068 10.3 28.2°
Maximum altitude 00:33:28 59° 138° (SE) 761 7.6 27.3°
Drops below altitude 10° 00:38:09 10° 59° (ENE) 2,064 9.4 26.3°
Sets 00:40:31 0° 55° (NE) 2,973 10.1 25.8°
